Regional Weather Roundup
Issued by NWS

Home | Current Version | Previous Version | Text Only | Print | Product List | Glossary On
Versions: 1 2 3 4 5 6 7 8 9 10 11 12 13 14 15 16 17 18 19 20 21 22 23 24 25 26 27 28 29 30 31 32 33 34 35 36 37 38 39 40 41 42 43 44 45 46 47 48 49 50
000
ASUS45 KABQ 251301
RWRNM
NEW MEXICO REGIONAL WEATHER ROUNDUP
NATIONAL WEATHER SERVICE ALBUQUERQUE NM
700 AM MDT MON MAY 25 2015

NOTE: "FAIR" MEANS FEW OR NO CLOUDS BELOW 12,000 FEET AGL WITH NO
       SIGNIFICANT WEATHER OR OBSTRUCTIONS TO VISION.

      THIS PRODUCT IS RELEASED AS TWO VERSIONS.  ONE VERSION NEAR
      THE TOP OF THE HOUR CONTAINING PRELIMINARY DATA FROM ALBUQUERQUE
      AND OTHER STATIONS.  A FINAL VERSION WITH ADDITIONAL DATA IS
      ISSUED ABOUT 10 MINUTES AFTER THE HOUR.

NMZ501-503-504-510>518-251400-
NORTHWEST PLATEAU/NORTHCENTRAL MOUNTAINS

CITY           SKY/WX    TMP DP  RH WIND       PRES   REMARKS
FARMINGTON     PTSUNNY   47  42  83 E7        29.98R
SANTA FE       SUNNY     44  39  82 CALM      30.00R
TAOS           MOSUNNY   39  30  70 E6        30.03S WCI  35

$$
NMZ402-403-502-505>509-251400-
WESTCENTRAL MOUNTAINS/SOUTHWEST MOUNTAINS

CITY           SKY/WX    TMP DP  RH WIND       PRES   REMARKS
GALLUP         PTCLDY    42  38  85 SW3       30.05R
GRANTS         SUNNY     39  37  94 CALM      30.07R
SILVER CITY    CLEAR     46  32  57 N9        30.05S

$$
NMZ407-409-411-412-251400-
SOUTHERN DESERTS

CITY           SKY/WX    TMP DP  RH WIND       PRES   REMARKS
LORDSBURG      FAIR      46  28  49 CALM      30.01R
DEMING         CLEAR     48  30  49 SW6       30.01R
ALAMOGORDO     SUNNY     50  32  50 CALM      29.97R
T OR C         SUNNY     54  35  48 NW6       30.00R

$$
NMZ519>523-251400-
CENTRAL VALLEYS/CENTRAL HIGHLANDS

CITY           SKY/WX    TMP DP  RH WIND       PRES   REMARKS
ALBUQUERQUE    MOSUNNY   50  43  77 S6        30.01R
DOUBLE EAGLE   MOSUNNY   46  45  93 CALM      30.02R
MORIARTY ARPT  FAIR      48  39  73 W6        30.02S
CLINES CORNERS SUNNY     45  39  79 W14       30.00R
BELEN          FAIR      50  42  74 SW3       30.00S
SOCORRO        NOT AVBL

$$
NMZ524>526-539-540-251400-
SOUTHCENTRAL MOUNTAINS

CITY           SKY/WX    TMP DP  RH WIND       PRES   REMARKS
RUIDOSO        NOT AVBL

$$
NMZ527>531-251400-
NORTHEAST HIGHLANDS/NORTHEAST PLAINS

CITY           SKY/WX    TMP DP  RH WIND       PRES   REMARKS
LAS VEGAS      SUNNY     45  36  70 SE9       29.96R
RATON          PTSUNNY   45  37  73 N8        29.92R
CLAYTON        SUNNY     50  42  74 SW7       29.88R

$$
NMZ532>537-251400-
EASTCENTRAL PLAINS

CITY           SKY/WX    TMP DP  RH WIND       PRES   REMARKS
TUCUMCARI      SUNNY     55  46  71 W7        29.85F
CANNON AFB     NOT AVBL
CLOVIS AIRPORT PTSUNNY   50  43  76 CALM      29.90F

$$
NMZ028-029-538-251400-
SOUTHEAST PLAINS

CITY           SKY/WX    TMP DP  RH WIND       PRES   REMARKS
ROSWELL        MOSUNNY   58  41  53 NW6       29.89F
ARTESIA        PTSUNNY   63  36  36 W5        29.90S
CARLSBAD       PTSUNNY   66  38  35 W9        29.86F
HOBBS          MOSUNNY   59  39  47 NW12      29.86F


$$


USA.gov is the U.S. government's official web portal to all federal, state and local government web resources and services.